Main page
METAR-TAF:

METAR-TAF

Airports :

Podor Airport

Podor, Senegal

latitude: 16-39N, longitude: 014-58W, elevation: 6 m

Current weather observation

The report was made 4 hours and 33 minutes ago, at 00:00 UTC
Wind 2 kt from the North
Temperature 20°C
Humidity 26%
Pressure 1019 hPa
Visibility 10 km or more
no clouds below 1500 m and no cumulonimbus

METAR: GOSP 210000Z 36002KT CAVOK 20/M00 Q1019

Time: 04:33 (04:33 UTC)


TAF: missing

Weather observations and forecasts of more than 4000 airports (METAR and TAF reports).

The available stations are represented by yellow and red dots on the map.

Hover mouse over dot to see the name of the station.

Then click to see weather observations and forecasts.

To change the map : click on the green buttons with a black cross to zoom in, on the green button with a dash to zoom out, or on the green arrows for adjacent maps.


METAR-TAF: